TimeCST,TemperatureF,Dew PointF,Humidity,Sea Level PressureIn,VisibilityMPH,Wind Direction,Wind SpeedMPH,Gust SpeedMPH,PrecipitationIn,Events,Conditions,WindDirDegrees,DateUTC
12:53 AM,59.0,55.0,87,30.02,9.0,ESE,9.2,-,N/A,,Mostly Cloudy,120,2013-02-06 06:53:00
1:53 AM,57.9,55.0,90,30.02,7.0,ESE,9.2,-,N/A,,Mostly Cloudy,120,2013-02-06 07:53:00
2:47 AM,57.2,55.4,94,30.03,7.0,ESE,4.6,-,N/A,,Mostly Cloudy,120,2013-02-06 08:47:00
2:53 AM,57.9,55.9,93,30.02,7.0,ESE,6.9,-,N/A,,Overcast,110,2013-02-06 08:53:00
3:43 AM,59.0,55.4,88,30.04,7.0,SE,6.9,-,N/A,,Overcast,140,2013-02-06 09:43:00
3:50 AM,59.0,55.4,88,30.04,7.0,SE,5.8,-,N/A,,Overcast,140,2013-02-06 09:50:00
3:53 AM,59.0,55.9,90,30.03,7.0,SE,5.8,-,N/A,,Overcast,140,2013-02-06 09:53:00
4:00 AM,57.2,55.4,94,30.04,7.0,SSE,5.8,-,N/A,,Overcast,150,2013-02-06 10:00:00
4:53 AM,59.0,55.9,90,30.01,7.0,SE,10.4,-,N/A,,Mostly Cloudy,140,2013-02-06 10:53:00
5:53 AM,59.0,57.0,93,30.02,7.0,SSE,8.1,-,N/A,,Overcast,160,2013-02-06 11:53:00
6:07 AM,60.8,57.2,88,30.04,7.0,SSE,6.9,-,N/A,,Overcast,160,2013-02-06 12:07:00
6:31 AM,60.8,57.2,88,30.05,7.0,South,6.9,-,N/A,,Overcast,170,2013-02-06 12:31:00
6:53 AM,60.1,57.9,93,30.03,5.0,SE,9.2,-,N/A,,Overcast,130,2013-02-06 12:53:00
7:43 AM,60.8,57.2,88,30.04,7.0,SE,10.4,-,N/A,,Overcast,130,2013-02-06 13:43:00
7:53 AM,60.1,57.9,93,30.03,8.0,SE,10.4,-,N/A,,Overcast,130,2013-02-06 13:53:00
8:15 AM,60.8,57.2,88,30.05,9.0,SSE,9.2,-,N/A,,Overcast,150,2013-02-06 14:15:00
8:53 AM,61.0,57.9,90,30.05,9.0,SE,6.9,-,N/A,,Overcast,140,2013-02-06 14:53:00
9:53 AM,61.0,57.9,90,30.05,6.0,SE,10.4,-,0.01,Rain-Thunderstorm,Light Thunderstorms and Rain,130,2013-02-06 15:53:00
10:13 AM,60.8,57.2,88,30.06,7.0,ESE,6.9,-,0.01,Rain-Thunderstorm,Light Rain,110,2013-02-06 16:13:00
10:17 AM,60.8,57.2,88,30.06,8.0,ESE,8.1,-,0.01,Rain,Light Rain,110,2013-02-06 16:17:00
10:36 AM,60.8,57.2,88,30.06,1.8,SE,5.8,-,0.12,Rain,Heavy Rain,140,2013-02-06 16:36:00
10:45 AM,60.8,57.2,88,30.06,3.0,SE,6.9,-,0.13,Rain,Light Rain,130,2013-02-06 16:45:00
10:53 AM,61.0,57.9,90,30.05,10.0,SE,8.1,-,0.13,Rain,Light Rain,130,2013-02-06 16:53:00
11:00 AM,60.8,57.2,88,30.06,10.0,SE,9.2,-,0.00,Rain,Light Rain,130,2013-02-06 17:00:00
11:13 AM,60.8,57.2,88,30.05,10.0,SE,6.9,-,0.00,,Overcast,140,2013-02-06 17:13:00
11:53 AM,61.0,57.9,90,30.04,10.0,SE,6.9,-,0.00,Rain,Light Rain,140,2013-02-06 17:53:00
12:53 PM,60.1,57.9,93,30.01,7.0,SE,13.8,-,0.02,Rain,Light Rain,130,2013-02-06 18:53:00
1:00 PM,60.8,57.2,88,30.01,3.0,ESE,10.4,-,0.03,Rain,Rain,120,2013-02-06 19:00:00
1:53 PM,61.0,59.0,93,29.97,10.0,SE,11.5,-,0.04,,Overcast,130,2013-02-06 19:53:00
2:53 PM,61.0,57.9,90,29.95,10.0,ESE,9.2,-,0.00,Rain,Light Rain,120,2013-02-06 20:53:00
3:53 PM,62.1,57.9,86,29.94,10.0,East,8.1,-,0.00,,Overcast,100,2013-02-06 21:53:00
4:53 PM,61.0,57.9,90,29.94,10.0,East,8.1,-,0.00,Rain,Light Rain,100,2013-02-06 22:53:00
5:53 PM,60.1,57.0,90,29.94,9.0,East,9.2,-,0.00,,Overcast,100,2013-02-06 23:53:00
6:53 PM,59.0,57.0,93,29.94,10.0,East,6.9,-,0.00,,Overcast,90,2013-02-07 00:53:00
7:53 PM,59.0,57.0,93,29.95,10.0,East,6.9,-,N/A,,Overcast,100,2013-02-07 01:53:00
8:53 PM,59.0,57.0,93,29.97,8.0,ESE,5.8,-,N/A,,Overcast,120,2013-02-07 02:53:00
9:53 PM,60.1,57.0,90,29.96,8.0,SE,9.2,-,N/A,,Overcast,130,2013-02-07 03:53:00
10:53 PM,59.0,57.0,93,29.96,8.0,SE,9.2,-,N/A,,Overcast,140,2013-02-07 04:53:00
11:13 PM,59.0,57.2,94,29.97,8.0,SE,9.2,-,N/A,,Overcast,140,2013-02-07 05:13:00
11:53 PM,59.0,57.0,93,29.96,9.0,SSE,6.9,-,N/A,,Overcast,150,2013-02-07 05:53:00